User: anonymous   Login
Location: Unspecified
(0.0000°N, 0.0000°E)
Time: 06:43:32
(UTC+02:00)
Language:

Cosmos 2263 Rocket - Orbit

View from above orbital plane
View from above orbital plane
View from above satellite
View from above satellite

Ground track
Ground track

The orbit data is extracted from the following two-line orbital elements,

1 22803U 93059B   17232.19274890 -.00000033 +00000-0 +73383-5 0  9992
2 22803 070.9906 114.5659 0019460 286.3858 073.5126 14.16778439237094
Epoch (UTC): 20 August 2017 04:37:33
Eccentricity: 0.0019460
inclination: 70.9906°
perigee height: 822 km
apogee height: 850 km
right ascension of ascending node: 114.5659°
argument of perigee: 286.3858°
revolutions per day: 14.16778439
mean anomaly at epoch: 73.5126°
orbit number at epoch: 23709

The dashed part of the orbit path shows where the satellite is in the earth's shadow,  

DLR